Perth, Australia

8:07 PM AWST on August 17, 2017 (GMT +0800)
Perth International

Weather History for YPPH - August, 2013

Change the Weather History Date:

Sunday, August 11, 2013

  Actual Average Record
Temperature  
Mean Temperature 57 °F -  
Max Temperature 65 °F 66 °F 76 °F (2012)
Min Temperature 49 °F 47 °F 37 °F (1997)
Degree Days  
Heating Degree Days 8    
Growing Degree Days 7 (Base 50)    
Moisture  
Dew Point 46 °F    
Average Humidity 69    
Maximum Humidity 100    
Minimum Humidity 23    
Precipitation  
Precipitation 0.00 in 0.13 in - ()
Sea Level Pressure  
Sea Level Pressure 30.06 in    
Wind  
Wind Speed 7 mph ()    
Max Wind Speed 20 mph    
Max Gust Speed -    
Visibility 8.1 miles    
Events Rain    
Averages and records for this station are not official NWS values.
T = Trace of Precipitation, MM = Missing Value Source: Averaged Metar Reports

Daily Weather History Graph

Daily Weather History Graph

Search for Another Location

Airport or City:

Trip Planner

Search our weather history database for the weather conditions in past years. The results will help you decide how hot, cold, wet, or windy it might be!

Date:

Astronomy

Aug. 11, 2013 Rise Set
Actual Time 6:56 AM AWST 5:46 PM AWST
Civil Twilight 6:31 AM AWST 6:11 PM AWST
Nautical Twilight 6:02 AM AWST 6:40 PM AWST
Astronomical Twilight 5:33 AM AWST 7:09 PM AWST
Moon 9:04 AM AWST (8/11) 9:59 PM AWST (8/11)
Length of Visible Light 11h 40m
Length of Day
10h 50m
Waxing Crescent, 17% of the Moon is Illuminated
Aug 11
Waxing Crescent
Aug 14
First Quarter
Aug 21
Full
Aug 28
Last Quarter
Sep 5
New

Hourly Weather History & Observations

Time (AWST) Temp. Dew Point Humidity Pressure Visibility Wind Dir Wind Speed Gust Speed Precip Events Conditions
12:00 AM 53 °F 52 °F 94% 30.00 in 16 mi SW 6.9 mph - -   Partly Cloudy
12:00 AM 51.8 °F 51.8 °F 100% 29.98 in 6.2 mi SW 6.9 mph - N/A   Partly Cloudy
12:30 AM 51.8 °F 50.0 °F 94% 29.98 in 6.2 mi South 4.6 mph - N/A   Scattered Clouds
1:00 AM 51.8 °F 50.0 °F 94% 29.98 in - NE 5.8 mph - N/A   Clear
1:30 AM 51.8 °F 51.8 °F 100% 29.98 in - North 3.5 mph - N/A   Clear
2:00 AM 52 °F 51 °F 95% 29.99 in - NNE 5.8 mph - -  
2:00 AM 51.8 °F 51.8 °F 100% 29.98 in 6.2 mi NNE 5.8 mph - N/A   Scattered Clouds
2:30 AM 53.6 °F 53.6 °F 100% 29.98 in 6.2 mi SSW 9.2 mph - N/A   Partly Cloudy
3:00 AM 51 °F 50 °F 96% 30.00 in 16 mi SSE 4.6 mph - -   Partly Cloudy
3:00 AM 51.8 °F 50.0 °F 94% 29.98 in 6.2 mi SSE 4.6 mph - N/A   Scattered Clouds
3:30 AM 50.0 °F 50.0 °F 100% 29.98 in 6.2 mi SSE 3.5 mph - N/A   Mostly Cloudy
4:00 AM 53.6 °F 51.8 °F 94% 29.98 in 6.2 mi SSW 1.2 mph - N/A   Mostly Cloudy
4:30 AM 53.6 °F 51.8 °F 94% 29.98 in 6.2 mi SW 5.8 mph - N/A   Mostly Cloudy
5:00 AM 53 °F 52 °F 94% 30.00 in - North 3.5 mph - -  
5:00 AM 51.8 °F 51.8 °F 100% 29.98 in 6.2 mi North 3.5 mph - N/A   Mostly Cloudy
5:30 AM 51.8 °F 51.8 °F 100% 30.01 in 6.2 mi NNE 4.6 mph - N/A   Mostly Cloudy
5:50 AM 53.6 °F 51.8 °F 94% 30.01 in 3.7 mi NNE 3.5 mph - N/A Rain Light Rain Showers
6:00 AM 54 °F 53 °F 95% 30.01 in 7 mi South 5.8 mph - -   Mostly Cloudy
6:00 AM 55.4 °F 53.6 °F 94% 30.01 in 6.2 mi South 5.8 mph - N/A   Mostly Cloudy
6:30 AM 53.6 °F 51.8 °F 94% 30.01 in 6.2 mi ESE 4.6 mph - N/A   Scattered Clouds
7:00 AM 53.6 °F 51.8 °F 94% 30.01 in 5.0 mi ESE 4.6 mph - N/A Rain Light Rain Showers
7:30 AM 53.6 °F 53.6 °F 100% 30.04 in 6.2 mi South 3.5 mph - N/A   Scattered Clouds
8:00 AM 54 °F 54 °F 98% 30.06 in - NNW 5.8 mph - -  
8:00 AM 53.6 °F 53.6 °F 100% 30.06 in 6.2 mi NNW 5.8 mph - N/A   Scattered Clouds
8:30 AM 57.2 °F 55.4 °F 94% 30.06 in 6.2 mi Calm Calm - N/A   Scattered Clouds
9:00 AM 59 °F 53 °F 73% 30.09 in 16 mi SW 8.1 mph - -   Haze
9:00 AM 59.0 °F 53.6 °F 82% 30.06 in 6.2 mi SW 8.1 mph - N/A   Partly Cloudy
9:30 AM 60.8 °F 46.4 °F 59% 30.06 in 6.2 mi SW 12.7 mph - N/A   Scattered Clouds
10:00 AM 62.6 °F 48.2 °F 59% 30.09 in 6.2 mi SW 17.3 mph - N/A   Partly Cloudy
10:30 AM 64.4 °F 39.2 °F 40% 30.09 in 6.2 mi SW 13.8 mph - N/A   Scattered Clouds
11:00 AM 62 °F 48 °F 49% 30.10 in - South 16.1 mph - -  
11:00 AM 62.6 °F 48.2 °F 59% 30.09 in 6.2 mi South 16.1 mph - N/A   Scattered Clouds
11:30 AM 64.4 °F 42.8 °F 45% 30.09 in 6.2 mi SW 17.3 mph - N/A   Partly Cloudy
12:00 PM 64 °F 36 °F 23% 30.11 in 19 mi SSW 17.3 mph - -   Partly Cloudy
12:00 PM 64.4 °F 35.6 °F 34% 30.09 in 6.2 mi SSW 17.3 mph - N/A   Partly Cloudy
12:30 PM 64.4 °F 32.0 °F 30% 30.09 in 6.2 mi SW 16.1 mph - N/A   Partly Cloudy
1:00 PM 64.4 °F 33.8 °F 32% 30.06 in - SW 17.3 mph - N/A   Clear
1:30 PM 64.4 °F 39.2 °F 40% 30.06 in - WSW 15.0 mph - N/A   Clear
2:00 PM 64 °F 41 °F 31% 30.08 in - WSW 13.8 mph - -  
2:00 PM 64.4 °F 41.0 °F 42% 30.06 in - WSW 13.8 mph - N/A   Clear
2:30 PM 64.4 °F 41.0 °F 42% 30.06 in - SW 12.7 mph - N/A   Clear
3:00 PM 63 °F 43 °F 36% 30.09 in 19 mi WSW 15.0 mph - -   Partly Cloudy
3:00 PM 62.6 °F 42.8 °F 48% 30.06 in 6.2 mi SW 19.6 mph - N/A   Scattered Clouds
3:30 PM 62.6 °F 39.2 °F 42% 30.09 in 6.2 mi WSW 17.3 mph - N/A   Partly Cloudy
4:00 PM 62.6 °F 37.4 °F 39% 30.09 in 6.2 mi SW 17.3 mph - N/A   Partly Cloudy
4:30 PM 62.6 °F 35.6 °F 37% 30.09 in 6.2 mi SW 16.1 mph - N/A   Partly Cloudy
5:00 PM 61 °F 37 °F 29% 30.10 in - WSW 11.5 mph - -  
5:00 PM 60.8 °F 37.4 °F 42% 30.09 in 6.2 mi WSW 11.5 mph - N/A   Partly Cloudy
5:30 PM 60.8 °F 39.2 °F 45% 30.09 in 6.2 mi WSW 10.4 mph - N/A   Partly Cloudy
6:00 PM 59 °F 40 °F 39% 30.11 in 19 mi WSW 12.7 mph - -   Partly Cloudy
6:00 PM 59.0 °F 41.0 °F 51% 30.09 in 6.2 mi WSW 12.7 mph - N/A   Partly Cloudy
6:30 PM 59.0 °F 41.0 °F 51% 30.09 in 6.2 mi WSW 10.4 mph - N/A   Scattered Clouds
7:00 PM 59.0 °F 39.2 °F 48% 30.09 in - WSW 9.2 mph - N/A   Clear
7:30 PM 59.0 °F 39.2 °F 48% 30.12 in - WSW 8.1 mph - N/A   Clear
8:00 PM 59 °F 38 °F 35% 30.13 in - WSW 8.1 mph - -  
8:00 PM 59.0 °F 39.2 °F 48% 30.12 in - WSW 8.1 mph - N/A   Clear
8:30 PM 57.2 °F 42.8 °F 59% 30.12 in - SW 6.9 mph - N/A   Clear
9:00 PM 54 °F 44 °F 59% 30.12 in 19 mi NW 5.8 mph - -   Partly Cloudy
9:00 PM 53.6 °F 44.6 °F 72% 30.12 in - NW 5.8 mph - N/A   Clear
9:30 PM 53.6 °F 46.4 °F 77% 30.12 in - WNW 6.9 mph - N/A   Clear
10:00 PM 53.6 °F 44.6 °F 72% 30.12 in - West 6.9 mph - N/A   Clear
10:30 PM 51.8 °F 46.4 °F 82% 30.12 in - West 5.8 mph - N/A   Clear
11:00 PM 50 °F 45 °F 78% 30.12 in - NW 3.5 mph - -  
11:00 PM 50.0 °F 44.6 °F 82% 30.09 in - NW 3.5 mph - N/A   Clear
11:30 PM 50.0 °F 44.6 °F 82% 30.09 in - NE 5.8 mph - N/A   Clear